Time,TemperatureF,DewpointF,PressureIn,WindDirection,WindDirectionDegrees,WindSpeedMPH,WindSpeedGustMPH,Humidity,HourlyPrecipIn,Conditions,Clouds,dailyrainin,SolarRadiationWatts/m^2,SoftwareType,DateUTC
2013-07-19 00:01:00,58.0,44.0,-100.00,NNE,21,1.0,3.0,59,0.00,,,-99.99,7.000000,,2013-07-19 08:01:00,
2013-07-19 00:11:00,58.0,44.0,-100.00,NNE,21,1.0,3.0,59,0.00,,,-99.99,7.000000,,2013-07-19 08:11:00,
2013-07-19 00:21:00,58.0,44.0,-100.00,NNE,21,1.0,3.0,59,0.00,,,-99.99,7.000000,,2013-07-19 08:21:00,
2013-07-19 00:32:00,58.0,44.0,-100.00,NNE,21,1.0,3.0,59,0.00,,,-99.99,7.000000,,2013-07-19 08:32:00,
2013-07-19 00:52:00,57.0,45.0,-100.00,SW,216,2.0,5.0,64,0.00,,,-99.99,0.000000,,2013-07-19 08:52:00,
2013-07-19 01:02:00,57.0,45.0,-100.00,SW,216,2.0,5.0,64,0.00,,,-99.99,0.000000,,2013-07-19 09:02:00,
2013-07-19 01:11:00,57.0,45.0,-100.00,SW,216,2.0,5.0,64,0.00,,,-99.99,0.000000,,2013-07-19 09:11:00,
2013-07-19 01:22:00,57.0,45.0,-100.00,SW,216,2.0,5.0,64,0.00,,,-99.99,0.000000,,2013-07-19 09:22:00,
2013-07-19 01:32:00,57.0,45.0,-100.00,SW,216,2.0,5.0,64,0.00,,,-99.99,0.000000,,2013-07-19 09:32:00,
2013-07-19 01:52:00,56.0,44.0,-100.00,SW,228,2.0,6.0,65,0.00,,,0.00,0.000000,,2013-07-19 09:52:00,
2013-07-19 02:01:00,56.0,44.0,-100.00,SW,228,2.0,6.0,65,0.00,,,0.00,0.000000,,2013-07-19 10:01:00,
2013-07-19 02:11:00,56.0,44.0,-100.00,SW,228,2.0,6.0,65,0.00,,,0.00,0.000000,,2013-07-19 10:11:00,
2013-07-19 02:22:00,56.0,44.0,-100.00,SW,228,2.0,6.0,65,0.00,,,0.00,0.000000,,2013-07-19 10:22:00,
2013-07-19 02:32:00,56.0,44.0,-100.00,SW,228,2.0,6.0,65,0.00,,,0.00,0.000000,,2013-07-19 10:32:00,
2013-07-19 02:52:00,54.0,43.0,-100.00,WSW,254,1.0,4.0,66,0.00,,,0.00,0.000000,,2013-07-19 10:52:00,
2013-07-19 03:02:00,54.0,43.0,-100.00,WSW,254,1.0,4.0,66,0.00,,,0.00,0.000000,,2013-07-19 11:02:00,
2013-07-19 03:12:00,54.0,43.0,-100.00,WSW,254,1.0,4.0,66,0.00,,,0.00,0.000000,,2013-07-19 11:12:00,
2013-07-19 03:22:00,54.0,43.0,-100.00,WSW,254,1.0,4.0,66,0.00,,,0.00,0.000000,,2013-07-19 11:22:00,
2013-07-19 03:32:00,54.0,43.0,-100.00,WSW,254,1.0,4.0,66,0.00,,,0.00,0.000000,,2013-07-19 11:32:00,
2013-07-19 04:01:00,53.0,43.0,-100.00,West,276,3.0,6.0,69,0.00,,,-99.99,0.000000,,2013-07-19 12:01:00,
2013-07-19 04:12:00,53.0,43.0,-100.00,West,276,3.0,6.0,69,0.00,,,-99.99,0.000000,,2013-07-19 12:12:00,
2013-07-19 04:22:00,53.0,43.0,-100.00,West,276,3.0,6.0,69,0.00,,,-99.99,0.000000,,2013-07-19 12:22:00,
2013-07-19 04:32:00,53.0,43.0,-100.00,West,276,3.0,6.0,69,0.00,,,-99.99,0.000000,,2013-07-19 12:32:00,
2013-07-19 05:02:00,52.0,43.0,-100.00,West,275,3.0,5.0,70,0.00,,,0.00,0.000000,,2013-07-19 13:02:00,
2013-07-19 05:11:00,52.0,43.0,-100.00,West,275,3.0,5.0,70,0.00,,,0.00,0.000000,,2013-07-19 13:11:00,
2013-07-19 05:22:00,52.0,43.0,-100.00,West,275,3.0,5.0,70,0.00,,,0.00,0.000000,,2013-07-19 13:22:00,
2013-07-19 05:32:00,52.0,43.0,-100.00,West,275,3.0,5.0,70,0.00,,,0.00,0.000000,,2013-07-19 13:32:00,
2013-07-19 05:33:00,51.0,44.0,-100.00,WNW,299,3.0,7.0,77,0.00,,,0.00,0.000000,,2013-07-19 13:33:00,
2013-07-19 06:02:00,51.0,44.0,-100.00,WNW,299,3.0,7.0,77,0.00,,,0.00,0.000000,,2013-07-19 14:02:00,
2013-07-19 06:11:00,51.0,44.0,-100.00,WNW,299,3.0,7.0,77,0.00,,,0.00,0.000000,,2013-07-19 14:11:00,
2013-07-19 06:22:00,51.0,44.0,-100.00,WNW,299,3.0,7.0,77,0.00,,,0.00,0.000000,,2013-07-19 14:22:00,
2013-07-19 07:02:00,49.0,46.0,-100.00,North,4,4.0,6.0,88,0.02,,,0.02,3.000000,,2013-07-19 15:02:00,
2013-07-19 07:11:00,49.0,46.0,-100.00,North,4,4.0,6.0,88,0.02,,,0.02,3.000000,,2013-07-19 15:11:00,
2013-07-19 07:22:00,49.0,46.0,-100.00,North,4,4.0,6.0,88,0.02,,,0.02,3.000000,,2013-07-19 15:22:00,
2013-07-19 07:32:00,49.0,46.0,-100.00,North,4,4.0,6.0,88,0.02,,,0.02,3.000000,,2013-07-19 15:32:00,
2013-07-19 08:01:00,49.0,46.0,-100.00,NNE,22,2.0,4.0,90,0.01,,,0.03,8.000000,,2013-07-19 16:01:00,
2013-07-19 08:11:00,49.0,46.0,-100.00,NNE,22,2.0,4.0,90,0.01,,,0.03,8.000000,,2013-07-19 16:11:00,
2013-07-19 08:22:00,49.0,46.0,-100.00,NNE,22,2.0,4.0,90,0.01,,,0.03,8.000000,,2013-07-19 16:22:00,
2013-07-19 08:32:00,49.0,46.0,-100.00,NNE,22,2.0,4.0,90,0.01,,,0.03,8.000000,,2013-07-19 16:32:00,
2013-07-19 08:53:00,49.0,47.0,-100.00,NE,43,3.0,4.0,93,0.01,,,0.04,20.000000,,2013-07-19 16:53:00,
2013-07-19 09:02:00,49.0,47.0,-100.00,NE,43,3.0,4.0,93,0.01,,,0.04,20.000000,,2013-07-19 17:02:00,
2013-07-19 09:12:00,49.0,47.0,-100.00,NE,43,3.0,4.0,93,0.01,,,0.04,20.000000,,2013-07-19 17:12:00,
2013-07-19 09:22:00,49.0,47.0,-100.00,NE,43,3.0,4.0,93,0.01,,,0.04,20.000000,,2013-07-19 17:22:00,
2013-07-19 09:32:00,49.0,47.0,-100.00,NE,43,3.0,4.0,93,0.01,,,0.04,20.000000,,2013-07-19 17:32:00,
2013-07-19 10:01:00,49.0,47.0,-100.00,NNE,14,2.0,4.0,94,-99.99,,,0.00,25.000000,,2013-07-19 18:01:00,
2013-07-19 10:11:00,49.0,47.0,-100.00,NNE,14,2.0,4.0,94,-99.99,,,0.00,25.000000,,2013-07-19 18:11:00,
2013-07-19 10:21:00,49.0,47.0,-100.00,NNE,14,2.0,4.0,94,-99.99,,,0.00,25.000000,,2013-07-19 18:21:00,
2013-07-19 10:32:00,49.0,47.0,-100.00,NNE,14,2.0,4.0,94,-99.99,,,0.00,25.000000,,2013-07-19 18:32:00,
2013-07-19 11:01:00,49.0,48.0,-100.00,WSW,240,1.0,3.0,97,0.02,,,0.02,43.000000,,2013-07-19 19:01:00,
2013-07-19 11:11:00,49.0,48.0,-100.00,WSW,240,1.0,3.0,97,0.02,,,0.02,43.000000,,2013-07-19 19:11:00,
2013-07-19 11:21:00,49.0,48.0,-100.00,WSW,240,1.0,3.0,97,0.02,,,0.02,43.000000,,2013-07-19 19:21:00,
2013-07-19 11:32:00,49.0,48.0,-100.00,WSW,240,1.0,3.0,97,0.02,,,0.02,43.000000,,2013-07-19 19:32:00,
2013-07-19 12:01:00,49.0,48.0,-100.00,WSW,244,1.0,2.0,98,0.01,,,0.03,81.000000,,2013-07-19 20:01:00,
2013-07-19 12:11:00,49.0,48.0,-100.00,WSW,244,1.0,2.0,98,0.01,,,0.03,81.000000,,2013-07-19 20:11:00,
2013-07-19 12:22:00,49.0,48.0,-100.00,WSW,244,1.0,2.0,98,0.01,,,0.03,81.000000,,2013-07-19 20:22:00,
2013-07-19 12:32:00,49.0,48.0,-100.00,WSW,244,1.0,2.0,98,0.01,,,0.03,81.000000,,2013-07-19 20:32:00,
2013-07-19 13:01:00,49.0,48.0,-100.00,WSW,254,1.0,3.0,98,0.00,,,0.03,136.000000,,2013-07-19 21:01:00,
2013-07-19 13:11:00,49.0,48.0,-100.00,WSW,254,1.0,3.0,98,0.00,,,0.03,136.000000,,2013-07-19 21:11:00,
2013-07-19 13:21:00,49.0,48.0,-100.00,WSW,254,1.0,3.0,98,0.00,,,0.03,136.000000,,2013-07-19 21:21:00,
2013-07-19 13:32:00,49.0,48.0,-100.00,WSW,254,1.0,3.0,98,0.00,,,0.03,136.000000,,2013-07-19 21:32:00,
2013-07-19 14:01:00,50.0,48.0,-100.00,NE,47,1.0,3.0,94,-99.99,,,0.02,197.000000,,2013-07-19 22:01:00,
2013-07-19 14:11:00,50.0,48.0,-100.00,NE,47,1.0,3.0,94,-99.99,,,0.02,197.000000,,2013-07-19 22:11:00,
2013-07-19 14:21:00,50.0,48.0,-100.00,NE,47,1.0,3.0,94,-99.99,,,0.02,197.000000,,2013-07-19 22:21:00,
2013-07-19 14:32:00,50.0,48.0,-100.00,NE,47,1.0,3.0,94,-99.99,,,0.02,197.000000,,2013-07-19 22:32:00,
2013-07-19 15:01:00,52.0,47.0,-100.00,SSW,200,2.0,3.0,84,-99.99,,,0.00,247.000000,,2013-07-19 23:01:00,
2013-07-19 15:11:00,52.0,47.0,-100.00,SSW,200,2.0,3.0,84,-99.99,,,0.00,247.000000,,2013-07-19 23:11:00,
2013-07-19 15:21:00,52.0,47.0,-100.00,SSW,200,2.0,3.0,84,-99.99,,,0.00,247.000000,,2013-07-19 23:21:00,
2013-07-19 15:32:00,52.0,47.0,-100.00,SSW,200,2.0,3.0,84,-99.99,,,0.00,247.000000,,2013-07-19 23:32:00,
2013-07-19 16:01:00,53.0,46.0,-100.00,SSW,203,2.0,3.0,78,0.00,,,0.00,311.000000,,2013-07-20 00:01:00,
2013-07-19 16:11:00,53.0,46.0,-100.00,SSW,203,2.0,3.0,78,0.00,,,0.00,311.000000,,2013-07-20 00:11:00,
2013-07-19 16:21:00,53.0,46.0,-100.00,SSW,203,2.0,3.0,78,0.00,,,0.00,311.000000,,2013-07-20 00:21:00,
2013-07-19 16:32:00,53.0,46.0,-100.00,SSW,203,2.0,3.0,78,0.00,,,0.00,311.000000,,2013-07-20 00:32:00,
2013-07-19 17:01:00,54.0,47.0,-100.00,SSW,194,1.0,4.0,76,0.00,,,0.00,406.000000,,2013-07-20 01:01:00,
2013-07-19 17:11:00,54.0,47.0,-100.00,SSW,194,1.0,4.0,76,0.00,,,0.00,406.000000,,2013-07-20 01:11:00,
2013-07-19 17:22:00,54.0,47.0,-100.00,SSW,194,1.0,4.0,76,0.00,,,0.00,406.000000,,2013-07-20 01:22:00,
2013-07-19 17:32:00,54.0,47.0,-100.00,SSW,194,1.0,4.0,76,0.00,,,0.00,406.000000,,2013-07-20 01:32:00,
2013-07-19 18:01:00,54.0,46.0,-100.00,SE,131,1.0,2.0,73,0.00,,,0.00,291.000000,,2013-07-20 02:01:00,
2013-07-19 18:11:00,54.0,46.0,-100.00,SE,131,1.0,2.0,73,0.00,,,0.00,291.000000,,2013-07-20 02:11:00,
2013-07-19 18:21:00,54.0,46.0,-100.00,SE,131,1.0,2.0,73,0.00,,,0.00,291.000000,,2013-07-20 02:21:00,
2013-07-19 18:32:00,54.0,46.0,-100.00,SE,131,1.0,2.0,73,0.00,,,0.00,291.000000,,2013-07-20 02:32:00,
2013-07-19 19:02:00,52.0,47.0,-100.00,East,85,3.0,7.0,83,0.00,,,0.00,124.000000,,2013-07-20 03:02:00,
2013-07-19 19:11:00,52.0,47.0,-100.00,East,85,3.0,7.0,83,0.00,,,0.00,124.000000,,2013-07-20 03:11:00,
2013-07-19 19:22:00,52.0,47.0,-100.00,East,85,3.0,7.0,83,0.00,,,0.00,124.000000,,2013-07-20 03:22:00,
2013-07-19 19:32:00,52.0,47.0,-100.00,East,85,3.0,7.0,83,0.00,,,0.00,124.000000,,2013-07-20 03:32:00,
2013-07-19 19:33:00,54.0,45.0,-100.00,WNW,285,4.0,9.0,71,0.00,,,0.00,311.000000,,2013-07-20 03:33:00,
2013-07-19 19:53:00,54.0,45.0,-100.00,WNW,285,4.0,9.0,71,0.00,,,0.00,311.000000,,2013-07-20 03:53:00,
2013-07-19 20:01:00,54.0,45.0,-100.00,WNW,285,4.0,9.0,71,0.00,,,0.00,311.000000,,2013-07-20 04:01:00,
2013-07-19 20:11:00,54.0,45.0,-100.00,WNW,285,4.0,9.0,71,0.00,,,0.00,311.000000,,2013-07-20 04:11:00,
2013-07-19 20:22:00,54.0,45.0,-100.00,WNW,285,4.0,9.0,71,0.00,,,0.00,311.000000,,2013-07-20 04:22:00,
2013-07-19 21:02:00,54.0,46.0,-100.00,WNW,282,2.0,5.0,74,0.00,,,0.00,312.000000,,2013-07-20 05:02:00,
2013-07-19 21:11:00,54.0,46.0,-100.00,WNW,282,2.0,5.0,74,0.00,,,0.00,312.000000,,2013-07-20 05:11:00,
2013-07-19 21:22:00,54.0,46.0,-100.00,WNW,282,2.0,5.0,74,0.00,,,0.00,312.000000,,2013-07-20 05:22:00,
2013-07-19 21:32:00,54.0,46.0,-100.00,WNW,282,2.0,5.0,74,0.00,,,0.00,312.000000,,2013-07-20 05:32:00,
2013-07-19 22:01:00,54.0,48.0,-100.00,WSW,254,2.0,6.0,79,0.00,,,-99.99,163.000000,,2013-07-20 06:01:00,
2013-07-19 22:11:00,54.0,48.0,-100.00,WSW,254,2.0,6.0,79,0.00,,,-99.99,163.000000,,2013-07-20 06:11:00,
2013-07-19 22:21:00,54.0,48.0,-100.00,WSW,254,2.0,6.0,79,0.00,,,-99.99,163.000000,,2013-07-20 06:21:00,
2013-07-19 22:32:00,54.0,48.0,-100.00,WSW,254,2.0,6.0,79,0.00,,,-99.99,163.000000,,2013-07-20 06:32:00,
2013-07-19 22:33:00,51.0,45.0,-100.00,WNW,295,2.0,4.0,81,0.00,,,0.00,30.000000,,2013-07-20 06:33:00,
2013-07-19 22:52:00,51.0,45.0,-100.00,WNW,295,2.0,4.0,81,0.00,,,0.00,30.000000,,2013-07-20 06:52:00,
2013-07-19 23:01:00,51.0,45.0,-100.00,WNW,295,2.0,4.0,81,0.00,,,0.00,30.000000,,2013-07-20 07:01:00,
2013-07-19 23:12:00,51.0,45.0,-100.00,WNW,295,2.0,4.0,81,0.00,,,0.00,30.000000,,2013-07-20 07:12:00,
2013-07-19 23:22:00,51.0,45.0,-100.00,WNW,295,2.0,4.0,81,0.00,,,0.00,30.000000,,2013-07-20 07:22:00,
2013-07-19 23:54:00,51.0,47.0,-100.00,NNE,33,3.0,6.0,85,0.00,,,0.00,4.000000,,2013-07-20 07:54:00,